Tracking 20712 objects as of 30-May-2020
HD Live streaming from Space Station
objects crossing your sky now

DIRECTV 3 (DBS/NIMIQ 3)

Track DIRECTV 3 (DBS/NIMIQ 3) now!
DIRECTV 3 (DBS/NIMIQ 3) is classified as:


NORAD ID: 23598
Int'l Code: 1995-029A
Perigee: 36,110.6 km
Apogee: 36,196.7 km
Inclination: 8.2 °
Period: 1,454.5 minutes
Semi major axis: 42524 km
RCS: 31.8223 m2 (large)
Launch date: June 10, 1995
Source: United States (US)
Launch site: FRENCH GUIANA (FRGUI)

On-orbit backup; high resolution TV broadcast; USA and Western Hemispheric countries; 30 TV channels.
aabbcc
Your satellite tracking list
Your tracking list is empty




NASA's NSSDC Master Catalog

Two Line Element Set (TLE):
1 23598U 95029A   20150.15911580 -.00000117 +00000-0 +00000-0 0  9990
2 23598 008.2197 049.4266 0010126 347.3212 195.0315 00.99001447090871
Source of the keplerian elements: AFSPC